Weather Roundup
Issued by NWS

Home | Current Version | Previous Version | Text Only | Print | Product List | Glossary On
Versions: 1 2 3 4 5 6 7 8 9 10 11 12 13 14 15 16 17 18 19 20 21 22 23 24 25 26 27 28 29 30 31 32 33 34 35 36 37 38 39 40 41 42 43 44 45 46 47 48 49 50
000
NZUS93 KARX 031010
HRRWXR

CURRENT HOURLY OBSERVATIONS ACROSS
MUCH OF THE UPPER MISSISSIPPI VALLEY
NATIONAL WEATHER SERVICE LA CROSSE WI
500 AM CDT MON AUG 03 2015


...SOUTHEAST MINNESOTA...


CITY           SKY/WX    TMP DP  RH WIND       PRES   REMARKS
ROCHESTER      CLEAR     53  50  89 W8        29.90R
ROCHESTER/MAYO FAIR      60  52  76 CALM      29.89R
WINONA         CLEAR     59  54  82 CALM      29.86S
AUSTIN         CLEAR     57  54  88 CALM      29.90S
ALBERT LEA     CLEAR     55  54  94 CALM      29.91R
DODGE CENTER   CLEAR     52  48  87 W3        29.90R
PRESTON        CLEAR     55  51  87 NW3       29.89S
OWATONNA       CLEAR     54  50  87 SW7       29.90R
FARIBAULT      CLEAR     54  52  94 CALM      29.89S
$$

...ELSEWHERE IN MINNESOTA...


CITY           SKY/WX    TMP DP  RH WIND       PRES   REMARKS
MINNEAPOLIS    CLEAR     62  53  72 CALM      29.87S
INTNL FALLS    CLOUDY    57  50  77 W7        29.77R
DULUTH         CLOUDY    56  46  69 W10       29.79R
RED WING       CLEAR     54  52  94 CALM      29.86S
REDWOOD FALLS  CLEAR     57  53  86 W8        29.91S
MANKATO        CLEAR     57  52  82 SW7       29.90R
WORTHINGTON    CLEAR     54  48  82 W5        29.95S
FAIRMONT       CLEAR     57  48  72 N5        29.92R
$$

...SOUTHWEST WISCONSIN...


CITY           SKY/WX    TMP DP  RH WIND       PRES   REMARKS
LA CROSSE      CLEAR     60  53  77 CALM      29.84S
PRAIRIE DU CHI CLEAR     61  57  86 CALM      29.86R
BOSCOBEL       CLEAR     57  55  93 CALM      29.86R
LONE ROCK      CLEAR     61  55  81 W5        29.85R
PLATTEVILLE    CLEAR     64  57  78 CALM      29.86R
FORT MC COY    CLEAR     49  47  93 CALM      29.85S
CAMP DOUGLAS   CLEAR     49  49 100 W8        29.82S
VIROQUA        FAIR      56  50  80 W5        29.87R
WIS DELLS      CLEAR     60  50  69 CALM      29.84R
$$

...ELSEWHERE IN WISCONSIN...


CITY           SKY/WX    TMP DP  RH WIND       PRES   REMARKS
MILWAUKEE      PTCLDY    66  59  78 NW5       29.77R
MADISON        CLEAR     65  57  75 NW6       29.82R
GREEN BAY      CLEAR     58  56  93 W8        29.76R
EAU CLAIRE     CLEAR     56  49  77 W6        29.83S
BLACK RVR FLS  FAIR      47  47 100 CALM      29.84R
MEDFORD        CLEAR     52  49  88 W5        29.81S
WAUSAU         CLEAR     57  51  80 NW5       29.78R
WIS RAPIDS     CLEAR     57  50  77 W6        29.82R
MARSHFIELD     CLEAR     55  48  77 W7        29.81S
RICE LAKE      CLEAR     52  47  84 W3        29.85S
$$

...NORTHEAST IOWA...


CITY           SKY/WX    TMP DP  RH WIND       PRES   REMARKS
DECORAH        CLEAR     59  55  88 W3        29.87S
MASON CITY     CLEAR     56  54  93 NW7       29.92S
CHARLES CITY   CLEAR     55  55 100 NW5       29.90S
OELWEIN        CLEAR     59  55  88 N5        29.89S
$$

...ELSEWHERE IN IOWA...


CITY           SKY/WX    TMP DP  RH WIND       PRES   REMARKS
DES MOINES     PTCLDY    70  57  63 N9        29.90F
IOWA CITY      CLEAR     66  61  84 NW6       29.88R
FORT DODGE     CLEAR     57  55  94 CALM      29.95R
$$

...NORTHERN ILLINOIS...


CITY           SKY/WX    TMP DP  RH WIND       PRES   REMARKS
CHICAGO-OHARE  PTCLDY    67  65  93 W7        29.77R
CHICAGO-MIDWAY PTCLDY    69  64  84 CALM      29.77R
MOLINE         MOCLDY    68  62  81 W5        29.84R
ROCKFORD       CLOUDY    70  61  73 NW8       29.82R
PEORIA         MOCLDY    73  63  70 NW6       29.82R
$$

NOTE: "FAIR" INDICATES FEW OR NO CLOUDS BELOW 12,000 FEET WITH NO
SIGNIFICANT WEATHER AND/OR OBSTRUCTIONS TO VISIBILITY. WIND
SPEEDS ARE IN MILES-PER-HOUR.



USA.gov is the U.S. government's official web portal to all federal, state and local government web resources and services.